This is the latest recevied weather packets stored in our database for station/object EB1BWO-11. If no packets are shown the sender has not sent any weather packets the latest 10 day(s).
| Time | Temp. | Humidity | Pressure | Rain* | Wind** | Luminosity | Snow |
|---|---|---|---|---|---|---|---|
| 1787839678 | 23.89° C | 66% | 1012 hPa | - | - | - | - |
| 1787838778 | 24.44° C | 66% | 1012.1 hPa | - | - | - | - |
| 1787837877 | 27.22° C | 57% | 1011.4 hPa | - | - | - | - |
| 1787836977 | 32.22° C | 45% | 1010.9 hPa | - | - | - | - |
| 1787836077 | 41.67° C | 34% | 1010.6 hPa | - | - | - | - |
| 1787835177 | 37.22° C | 37% | 1010.2 hPa | - | - | - | - |
| 1787834277 | 44.44° C | 32% | 1010.1 hPa | - | - | - | - |
| 1787833377 | 44.44° C | 28% | 1010 hPa | - | - | - | - |
| 1787832477 | 43.33° C | 31% | 1010.1 hPa | - | - | - | - |
| 1787831576 | 43.89° C | 31% | 1010.4 hPa | - | - | - | - |
| 1787830676 | 38.33° C | 36% | 1010.7 hPa | - | - | - | - |
| 1787829776 | 41.11° C | 39% | 1011 hPa | - | - | - | - |
| 1787828876 | 34.44° C | 48% | 1011.1 hPa | - | - | - | - |
| 1787827976 | 28.33° C | 55% | 1011.3 hPa | - | - | - | - |
| 1787827076 | 29.44° C | 52% | 1011.2 hPa | - | - | - | - |
| 1787826176 | 35° C | 44% | 1011.1 hPa | - | - | - | - |
| 1787825275 | 32.22° C | 50% | 1011.2 hPa | - | - | - | - |
| 1787824375 | 30.56° C | 54% | 1011.3 hPa | - | - | - | - |
| 1787823475 | 28.89° C | 55% | 1011.6 hPa | - | - | - | - |
| 1787822575 | 28.33° C | 54% | 1011.5 hPa | - | - | - | - |
| 1787821675 | 29.44° C | 53% | 1011.5 hPa | - | - | - | - |
| 1787820775 | 28.33° C | 57% | 1011.7 hPa | - | - | - | - |
| 1787819874 | 28.33° C | 56% | 1011.6 hPa | - | - | - | - |
| 1787818975 | 26.67° C | 60% | 1011.6 hPa | - | - | - | - |
| 1787818077 | 25.56° C | 62% | 1011.4 hPa | - | - | - | - |
* Rain since midnight (hover to see other rain measurements)
** Current wind speed in m/s (hover to see current wind gust speed)